TimeCST,TemperatureF,Dew PointF,Humidity,Sea Level PressureIn,VisibilityMPH,Wind Direction,Wind SpeedMPH,Gust SpeedMPH,PrecipitationIn,Events,Conditions,WindDirDegrees,DateUTC
12:00 AM,0,-2,86,30.41,9,Calm,Calm,,,,,,2012-11-24 06:00:00
12:00 AM,-0.4,-2.2,92,30.41,15.0,SSE,2.3,-,N/A,,Clear,150,2012-11-24 06:00:00
1:00 AM,1.4,-0.4,92,30.40,15.0,South,5.8,-,N/A,,Partly Cloudy,180,2012-11-24 07:00:00
2:00 AM,-0.4,-2.2,92,30.36,15.0,South,5.8,-,N/A,,Partly Cloudy,170,2012-11-24 08:00:00
2:37 AM,1.4,-9999,N/A,-9999,15.0,SSE,5.8,-,N/A,,Mostly Cloudy,160,2012-11-24 08:37:00
3:00 AM,3.2,1.4,92,30.32,15.0,South,5.8,-,N/A,,Overcast,170,2012-11-24 09:00:00
4:00 AM,6.8,5.0,92,30.28,15.0,South,6.9,-,N/A,,Overcast,170,2012-11-24 10:00:00
5:00 AM,6.8,5.0,92,30.23,15.0,SSE,11.5,-,N/A,,Overcast,160,2012-11-24 11:00:00
6:00 AM,8,6,90,30.22,9,Calm,Calm,,,,,,2012-11-24 12:00:00
6:00 AM,8.6,6.8,92,30.22,15.0,South,12.7,-,N/A,,Overcast,170,2012-11-24 12:00:00
7:00 AM,8.6,6.8,92,30.15,15.0,SSE,17.3,-,N/A,Snow,Light Snow,160,2012-11-24 13:00:00
8:00 AM,10.4,6.8,85,30.10,15.0,South,18.4,-,N/A,Snow,Light Snow,170,2012-11-24 14:00:00
9:00 AM,10.4,8.6,92,30.06,10.0,South,20.7,27.6,N/A,Snow,Light Snow,170,2012-11-24 15:00:00
9:38 AM,12.2,-9999,N/A,-9999,1.0,SSE,18.4,25.3,N/A,Snow,Light Snow,160,2012-11-24 15:38:00
9:44 AM,12.2,-9999,N/A,-9999,0.5,SSE,18.4,27.6,N/A,Snow,Snow,160,2012-11-24 15:44:00
10:00 AM,12.2,10.4,92,30.01,1.0,SSE,19.6,27.6,N/A,Snow,Light Snow,160,2012-11-24 16:00:00
10:07 AM,12.2,-9999,N/A,-9999,1.5,South,23.0,-,N/A,Snow,Light Snow,170,2012-11-24 16:07:00
10:12 AM,12.2,-9999,N/A,-9999,4.0,SSE,19.6,26.5,N/A,Snow,Light Snow,160,2012-11-24 16:12:00
10:20 AM,12.2,-9999,N/A,-9999,1.0,SSE,19.6,27.6,N/A,Snow,Light Snow Showers,160,2012-11-24 16:20:00
10:40 AM,12.2,-9999,N/A,-9999,0.5,SSE,23.0,-,N/A,Snow,Snow Showers,150,2012-11-24 16:40:00
11:00 AM,12.2,10.4,92,29.96,3.0,South,18.4,27.6,N/A,Snow,Light Snow Showers,170,2012-11-24 17:00:00
11:23 AM,14.0,-9999,N/A,-9999,1.0,SSE,17.3,25.3,N/A,Snow,Light Snow Showers,160,2012-11-24 17:23:00
12:00 PM,13,11,90,29.91,0,Calm,Calm,,,,Unknown Precipitation,,2012-11-24 18:00:00
12:00 PM,14.0,12.2,93,29.91,0.5,South,20.7,-,N/A,Snow,Snow Showers,170,2012-11-24 18:00:00
1:00 PM,14.0,12.2,93,29.87,0.5,South,20.7,27.6,N/A,Snow,Light Snow Showers,180,2012-11-24 19:00:00
1:26 PM,14.0,-9999,N/A,-9999,2.0,South,21.9,-,N/A,Snow,Light Snow Showers,170,2012-11-24 19:26:00
1:48 PM,15.8,-9999,N/A,-9999,3.0,South,23.0,28.8,N/A,Snow,Light Snow Showers,180,2012-11-24 19:48:00
2:00 PM,15.8,14.0,93,29.83,5.0,South,24.2,29.9,N/A,Snow,Light Snow Showers,170,2012-11-24 20:00:00
2:27 PM,15.8,-9999,N/A,-9999,10.0,South,20.7,-,N/A,Snow,Low Drifting Snow,180,2012-11-24 20:27:00
3:00 PM,15.8,14.0,93,29.82,15.0,South,19.6,-,N/A,Snow,Low Drifting Snow,180,2012-11-24 21:00:00
4:00 PM,17.6,15.8,93,29.83,10.0,South,15.0,23.0,N/A,Snow,Low Drifting Snow,180,2012-11-24 22:00:00
5:00 PM,17.6,15.8,93,29.83,10.0,SSW,8.1,-,N/A,,Overcast,200,2012-11-24 23:00:00
6:00 PM,19,17,86,29.83,9,Calm,Calm,,,,Overcast,,2012-11-25 00:00:00
6:00 PM,19.4,17.6,93,29.83,10.0,SW,6.9,-,N/A,,Overcast,230,2012-11-25 00:00:00
7:00 PM,19.4,17.6,93,29.85,10.0,NW,13.8,-,N/A,,Overcast,310,2012-11-25 01:00:00
8:00 PM,21.2,17.6,86,29.88,15.0,NW,16.1,-,N/A,,Overcast,310,2012-11-25 02:00:00
8:40 PM,21.2,-9999,N/A,-9999,12.0,NW,19.6,-,N/A,Snow,Light Snow,310,2012-11-25 02:40:00
9:00 PM,19.4,17.6,93,29.89,15.0,NNW,16.1,24.2,N/A,Snow,Light Snow,340,2012-11-25 03:00:00
10:00 PM,19.4,14.0,80,29.90,15.0,NW,12.7,-,N/A,,Overcast,320,2012-11-25 04:00:00
11:00 PM,19.4,14.0,80,29.91,12.0,NW,10.4,-,N/A,Snow,Light Snow,320,2012-11-25 05:00:00